User: anonymous
Location: Sun City Center
(27.6996°N, 82.3528°W)
Time: 20:14:04
(UTC-04:00)
Language:

Cosmos 2084 Rocket - Orbit

View from above orbital plane
View from above orbital plane
View from above satellite
View from above satellite

Ground track
Ground track

The orbit data is extracted from the following two-line orbital elements,

1 20666U 90055D   14106.85715031  .00001961  00000-0  22033-3 0  1443
2 20666 062.7902 046.6603 0042501 327.6543 032.1945 14.89491165288612
Epoch (UTC): 16 April 2014 20:34:17
Eccentricity: 0.0042501
inclination: 62.7902°
perigee height: 570 km
apogee height: 629 km
right ascension of ascending node: 46.6603°
argument of perigee: 327.6543°
revolutions per day: 14.89491165
mean anomaly at epoch: 32.1945°
orbit number at epoch: 28861

The dashed part of the orbit path shows where the satellite is in the earth's shadow,  

DLR